カタログに戻る

METEOR 2-17 DEB

運用中PO
NORAD 38540·DEBRIS·🇷🇺 Russia

打ち上げ Jan 30, 1988 から Plesetsk Cosmodrome

Loading…

次のパス (今後24時間)

TLE

最新Source: Space-Track

元期: Sep 14, 2026, 20:40 UTC

1 38540U 88005AT  26257.86126401  .00002049  00000-0  72160-3 0  9995
2 38540  82.5074 296.3730 0007978 111.9330 248.2707 14.34463884161673

AllMySatでMETEOR 2-17 DEBをリアルタイム追跡

Download on the App Store